STARLINK-1714 (46562 NORAD) Tracking and Keplerian Element Data

This shows tracking and keplerian element data for the satellite.

Feedback or suggestion? Click here.




ElementValue
Catalog46562
NameSTARLINK-1714
Epoch Orbit409
Epoch Day303.25001157
Epoch Year2020
RAAN330.0768
Inclination53
Eccentricity0.0001367
Argument of Perigee66.2178
Mean Anonmoly184.3463
Mean Motion15.62748342
Decay Rate8.977E-05
L11 46562U 20070AG 20303.25001157 .00008977 00000-0 10378-3 0 9994
L22 46562 53.0000 330.0768 0001367 66.2178 184.3463 15.62748342 4091

Live tracking and technical data element details for STARLINK-1714 (NORAD 46562). STARLINK-1714 can be tracked NOW for your location showing map with azimuth and elevation plus other details from your city location.

Track the satellite on the map from your city or location and see movement details for azimuth, elevation, latitude, longitude, range, height, and movement on the map or in text.







IsCatalogInMostPopularTable: catalog: 46562, numindb: 3
Update: records affected: 1



GetName: 46562 STARLINK-1714

Hit Count: updated at: Fri, 30 Oct 2020 01:46:56 GMT